This demonstration page uses our WeatherBlox Daily Observations layout. Learn more.

Hourly Observations for July 6, 2017

Temp ( °F °C ) Dew Point ( °F °C ) Humidity (%) Winds ( mph kmh ) Pressure ( in mb ) Visibility ( mi km ) Precip ( " mm )
12:53 am 00:53 Mostly Cloudy 72 22.2 72 22.2 100 100 Calm 30.06 1018 7 11.26538 0 0
1:53 am 01:53 Clear 72 22.2 71 21.7 97 97 Calm 30.05 1018 9 14.48406 0 0
2:53 am 02:53 Mostly Clear 72 22.2 71 21.7 97 97 ENE 3 6 30.03 1017 8 12.87472 0 0
3:53 am 03:53 Mostly Cloudy with Light Rain 71 21.7 71 21.7 100 100 Calm 30.02 1017 5 8.0467 0 0.0254
4:53 am 04:53 Mostly Cloudy with Mist and Fog 72 22.2 72 22.2 100 100 Calm 30.02 1017 5 8.0467 0 0.0254
5:47 am 05:47 Partly Cloudy with Mist and Fog 72 22 72 22 100 100 Calm 30.03 1017 5 8.0467 0 0
5:53 am 05:53 Partly Cloudy with Light Rain 72 22.2 72 22.2 100 100 Calm 30.01 1016 4 6.43736 0 0.0254
6:10 am 06:10 Partly Cloudy with Mist and Fog 72 22.2 72 22.2 100 100 Calm 30.03 1017 5 8.0467 0 0.0254
6:53 am 06:53 Mostly Cloudy with Light Rain 73 22.8 73 22.8 100 100 S 3 6 30.01 1016 5 8.0467 0 0.0254
7:07 am 07:07 Cloudy with Light Rain 74 23.3 73 22.8 97 97 SSE 3 6 30.03 1017 4 6.43736 0.01 0.254
7:51 am 07:51 Cloudy with Rain 73 23 73 23 100 100 Calm 30.03 1017 1.75 2.816345 0.06 1.524
7:53 am 07:53 Cloudy with Heavy Rain 74 23.3 74 23.3 100 100 Calm 30.02 1017 1.5 2.41401 0.06 1.524
8:01 am 08:01 Cloudy with Rain 74 23.3 74 23.3 100 100 Calm 30.03 1017 1.75 2.816345 0.03 0.762
8:11 am 08:11 Cloudy with Rain 74 23.3 74 23.3 100 100 Calm 30.03 1017 2.5 4.02335 0.05 1.27
8:37 am 08:37 Cloudy with Heavy Rain 73 22.8 73 22.8 100 100 S 6 9 30.03 1017 1.5 2.41401 0.14 3.556
8:41 am 08:41 Cloudy with Heavy Thunderstorms 73 22.8 73 22.8 100 100 VRB 5 7 30.03 1017 1 1.60934 0.17 4.318
8:49 am 08:49 Cloudy with Thunderstorms 73 23 73 23 100 100 Calm 30.03 1017 2 3.21868 0.18 4.572
8:53 am 08:53 Cloudy with Thunderstorms 73 22.8 73 22.8 100 100 SSW 5 7 30.02 1017 3 4.82802 0.19 4.826
8:56 am 08:56 Cloudy with Nearby Thunderstorms 73 22.8 73 22.8 100 100 SSW 5 7 30.03 1017 3 4.82802 0 0.0254
9:19 am 09:19 Cloudy with Light Rain 74 23.3 73 22.8 97 97 Calm 30.06 1018 7 11.26538 0.02 0.508
9:31 am 09:31 Cloudy with Nearby Thunderstorms 74 23.3 73 22.8 97 97 Calm 30.06 1018 10 16.0934 0.02 0.508
9:53 am 09:53 Cloudy with Nearby Thunderstorms 75 23.9 73 22.8 94 94 Calm 30.03 1017 10 16.0934 0.02 0.508
9:58 am 09:58 Cloudy with Light Rain 75 23.9 73 22.8 94 94 Calm 30.03 1017 10 16.0934 0 0.0254
10:17 am 10:17 Cloudy 75 23.9 74 23.3 96 96 Calm 30.03 1017 10 16.0934 0 0.0254
10:30 am 10:30 Cloudy 75 23.9 73 22.8 94 94 SE 3 6 30.03 1017 10 16.0934 0 0.0254
10:53 am 10:53 Mostly Cloudy 77 25 73 22.8 88 88 SSW 6 9 30.01 1016 10 16.0934 0 0.0254
11:53 am 11:53 Cloudy 78 25.6 72 22.2 82 82 W 6 9 30.03 1017 10 16.0934 0 0
12:22 pm 12:22 Mostly Cloudy 78 25.6 72 22.2 82 82 N 6 9 30.03 1017 10 16.0934 0 0
12:53 pm 12:53 Cloudy with Rain 74 23.3 72 22.2 94 94 NNW 5 7 30.02 1017 2 3.21868 0.11 2.794
12:58 pm 12:58 Cloudy with Heavy Rain 73 22.8 72 22.2 96 96 N 6 9 30.03 1017 1.5 2.41401 0.07 1.778
1:04 pm 13:04 Cloudy with Heavy Rain 73 22.8 72 22.2 96 96 NNW 8 13 30.03 1017 0.75 1.207005 0.19 4.826
1:23 pm 13:23 Cloudy with Rain 73 22.8 72 22.2 96 96 N 6 9 30.03 1017 1.75 2.816345 0.43 10.922
1:26 pm 13:26 Cloudy with Light Rain 73 22.8 72 22.2 96 96 N 5 7 30.03 1017 3 4.82802 0.43 10.922
1:46 pm 13:46 Cloudy with Light Rain 73 22.8 71 21.7 94 94 N 7 11 30.03 1017 7 11.26538 0.43 10.922
1:53 pm 13:53 Cloudy with Light Rain 73 22.8 71 21.7 94 94 N 7 11 30.02 1017 9 14.48406 0.43 10.922
2:53 pm 14:53 Cloudy 74 23.3 71 21.7 91 91 Calm 29.99 1016 10 16.0934 0 0.0254
3:53 pm 15:53 Sunny 75 23.9 72 22.2 90 90 Calm 29.97 1015 10 16.0934 0 0.0254
4:53 pm 16:53 Cloudy with Light Rain 76 24.4 70 21.1 82 82 NNE 3 6 29.97 1015 10 16.0934 0 0.0254
5:53 pm 17:53 Cloudy 76 24.4 70 21.1 82 82 ENE 3 6 29.95 1014 10 16.0934 0 0.0254
6:53 pm 18:53 Sunny 76 24.4 71 21.7 85 85 Calm 29.93 1014 10 16.0934 0 0
7:53 pm 19:53 Cloudy 78 25.6 71 21.7 79 79 Calm 29.96 1015 10 16.0934 0 0
8:53 pm 20:53 Sunny 74 23.3 73 22.8 97 97 Calm 29.96 1015 10 16.0934 0 0
9:53 pm 21:53 Clear 71 21.7 70 21.1 96 96 Calm 29.97 1015 8 12.87472 0 0
10:53 pm 22:53 Clear 69 20.6 69 20.6 100 100 Calm 29.96 1015 7 11.26538 0 0
11:53 pm 23:53 Clear with Mist and Fog 68 20 68 20 100 100 Calm 29.97 1015 5 8.0467 0 0

Powered by AerisWeather